Temp
61 62 62 61 49 43 37 45 51 55 61 65 69 68 68 67 67 59 71 74 73 73 73 73 73 74 74 75 75 75 75 76 76 76 76 76 76 76 76 76 76 77 78 78 79 78 78 77 75
62 66 61 52 42 36 40 48 54 57 66 69 72 69 69 67 73 70 71 73 74 73 73 73 73 73 74 74 74 75 76 76 76 76 75 76 76 76 75 75 75 77 78 78 79 78 77 76 75
64 66 55 48 38 39 41 51 53 62 67 66 67 71 72 69 75 73 75 74 73 72 73 73 73 73 74 74 74 74 75 75 75 75 76 76 76 76 75 75 75 77 77 78 79 78 76 73 73
62 58 53 43 40 44 49 52 57 62 67 67 65 66 74 77 75 77 74 73 72 71 72 71 72 73 73 74 74 74 73 73 74 74 75 76 76 76 75 74 75 77 77 78 78 76 74 72 72
57 51 41 37 41 47 54 58 59 61 63 67 70 67 68 76 77 75 73 74 70 70 70 71 71 72 73 74 74 73 73 73 73 74 74 75 75 75 74 74 75 75 76 77 76 74 73 72 72
51 48 37 37 42 51 57 59 61 62 64 67 66 65 68 74 73 73 73 71 72 69 70 71 71 72 72 73 73 72 72 72 72 73 73 74 74 74 74 74 74 74 75 74 73 72 72 72 72
47 42 38 38 44 49 57 63 60 61 62 65 70 64 67 69 73 73 72 69 69 69 69 69 70 71 71 70 70 70 71 71 71 72 72 73 72 72 73 73 74 74 73 73 72 72 71 72 71
50 46 36 42 46 47 60 63 63 62 62 72 69 63 64 71 72 70 68 67 66 66 67 68 69 70 69 69 69 69 70 70 70 71 71 71 71 72 72 72 73 73 73 72 72 71 71 71 70
54 41 35 42 46 51 62 56 62 66 63 66 69 65 70 71 71 67 66 65 65 66 65 66 69 68 68 68 69 70 70 70 71 71 71 69 70 70 71 70 71 71 70 71 71 71 70 69 68
49 38 43 52 54 56 60 54 62 59 61 63 65 71 74 73 69 67 65 65 64 64 65 66 66 66 66 68 68 69 69 68 69 73 72 69 68 68 69 69 69 69 69 69 69 69 69 67 65
46 44 50 54 58 55 55 58 62 59 58 63 63 66 69 71 68 66 67 68 68 68 66 66 66 66 66 67 69 70 70 69 67 71 71 67 67 67 67 67 68 67 68 65 66 66 65 65 65
45 52 54 54 59 57 56 62 60 60 62 67 68 67 66 70 69 68 66 66 67 67 67 67 67 66 66 67 68 70 70 69 69 67 66 67 67 65 65 66 66 65 65 64 63 63 64 65 65
48 52 56 58 59 58 60 57 58 60 65 66 66 66 64 65 67 69 67 69 68 66 68 67 67 66 67 66 67 69 69 68 69 69 66 66 66 65 65 64 65 65 64 63 63 62 64 65 66
54 54 54 55 56 56 56 57 53 59 65 63 65 64 65 64 64 64 65 64 67 71 69 68 68 68 67 67 67 67 68 68 67 67 67 66 66 65 64 64 64 63 64 63 63 62 63 63 64
55 48 50 52 53 53 57 51 53 60 61 60 60 61 63 64 65 64 65 67 66 70 73 68 68 69 68 67 66 66 66 66 66 66 65 66 65 65 64 64 64 62 63 62 61 62 62 62 64
46 45 39 49 52 56 51 46 54 60 56 57 58 60 62 63 65 65 65 65 67 67 70 71 71 69 68 68 67 66 66 66 66 66 66 65 66 65 64 66 65 63 64 63 62 62 62 62 62
39 35 38 44 52 51 49 47 52 58 57 56 56 57 58 60 62 63 65 65 66 67 68 70 70 68 68 68 67 67 67 66 66 66 66 65 65 65 65 65 65 65 64 63 63 62 62 61 61
34 35 33 36 45 45 45 47 53 55 55 55 54 56 58 61 62 67 68 67 66 65 65 71 70 70 69 68 67 66 66 66 66 66 66 65 66 65 64 63 64 64 64 63 63 62 62 61 61
41 39 37 40 48 43 46 47 52 56 48 49 51 53 56 58 65 66 66 66 64 62 61 67 68 68 68 67 66 65 64 66 65 66 66 66 65 64 64 62 63 64 63 63 63 62 61 60 61
41 38 37 43 48 45 44 44 52 52 51 53 56 56 57 60 63 65 65 63 62 66 62 64 67 67 68 68 68 66 67 66 66 65 64 65 64 64 63 62 63 63 62 62 62 61 60 60 61
41 38 39 40 46 45 42 43 47 52 54 57 58 57 57 53 53 55 57 56 54 56 59 63 67 67 68 68 68 62 62 62 62 62 63 63 64 64 65 63 63 62 63 61 61 62 61 59 60
37 47 46 44 39 33 44 32 46 49 48 54 57 53 49 50 52 53 53 52 52 54 56 58 67 67 68 69 67 64 64 63 64 65 65 62 63 63 64 63 63 62 63 62 61 62 61 61 59
43 50 46 44 37 35 40 31 41 50 48 48 46 50 49 50 50 49 50 51 52 52 54 56 65 69 69 68 68 65 64 65 63 64 60 62 62 63 63 63 62 62 62 62 62 61 60 60 59
50 45 43 39 35 28 39 34 38 42 42 43 48 48 48 48 48 48 51 51 52 53 51 53 60 67 69 68 67 65 64 61 60 60 60 60 61 62 62 62 62 62 62 62 62 62 61 60 59
42 36 26 24 23 28 38 33 36 41 45 45 45 45 46 46 44 45 46 46 48 48 50 51 55 65 67 67 66 64 63 61 60 60 60 59 58 58 61 61 61 61 61 61 62 61 60 60 60
38 37 27 23 23 25 38 28 36 45 46 49 48 47 45 43 44 44 45 46 45 46 48 48 51 63 65 65 64 63 61 61 61 60 60 60 60 60 59 60 60 61 61 60 60 60 61 61 60
38 32 39 32 31 28 31 36 41 45 44 47 46 45 42 40 41 41 42 44 44 44 45 46 50 62 63 64 61 60 60 60 60 60 60 60 60 62 62 62 61 59 59 59 60 60 60 60 60
40 42 28 31 22 23 29 30 32 38 42 45 43 41 40 40 39 39 40 41 42 43 44 46 48 52 61 61 62 61 61 61 60 60 59 58 58 58 57 56 55 56 56 56 58 58 59 59 60
33 32 34 33 31 25 24 27 42 39 42 44 40 39 38 38 38 37 38 40 40 41 43 45 45 48 51 59 60 60 59 59 59 59 58 58 57 57 56 55 54 56 55 57 57 57 58 58 59
36 32 33 18 23 28 27 28 43 40 39 39 36 36 39 38 37 37 37 37 38 38 40 42 43 45 49 53 59 59 59 59 59 59 59 58 58 57 58 57 56 57 56 56 56 56 57 57 57
MSLP
1011.52 1011.71 1011.80 1012.18 1014.22 1015.37 1014.62 1012.86 1010.82 1009.37 1007.97 1006.27 1005.51 1005.29 1004.46 1004.15 1004.25 1004.50 1003.90 1003.88 1004.21 1005.00 1005.70 1006.35 1006.74 1007.21 1007.65 1007.84 1007.83 1007.54 1007.94 1008.58 1009.10 1009.47 1009.90 1010.01 1010.20 1010.38 1010.78 1011.22 1011.51 1011.74 1011.97 1012.30 1012.62 1012.82 1013.14 1013.42 1013.69
1011.60 1011.80 1012.44 1013.59 1014.86 1015.62 1013.79 1011.74 1009.93 1009.06 1007.62 1006.30 1005.25 1004.22 1004.06 1003.69 1003.61 1004.04 1004.20 1004.37 1004.40 1004.70 1005.43 1006.12 1006.37 1006.74 1007.27 1007.79 1008.17 1007.86 1007.87 1008.42 1008.97 1009.55 1010.00 1010.30 1010.61 1010.67 1010.97 1011.34 1011.62 1011.94 1012.07 1012.41 1012.67 1012.95 1013.27 1013.53 1013.81
1011.74 1011.84 1013.11 1014.24 1014.91 1014.20 1012.84 1010.46 1009.37 1008.24 1007.37 1006.80 1005.89 1004.32 1003.69 1003.27 1003.16 1003.38 1003.34 1004.12 1004.89 1005.53 1005.59 1005.61 1006.00 1006.51 1006.94 1007.57 1008.11 1008.15 1008.18 1008.35 1008.82 1009.36 1009.90 1010.31 1010.74 1010.92 1011.17 1011.56 1011.92 1012.09 1012.27 1012.43 1012.76 1012.94 1013.32 1013.72 1014.00
1012.36 1012.84 1014.11 1014.25 1014.08 1012.99 1011.37 1009.77 1009.16 1008.23 1006.90 1006.25 1005.69 1004.65 1003.50 1002.38 1002.67 1002.68 1003.30 1004.04 1004.80 1005.41 1005.73 1006.09 1006.18 1006.45 1006.85 1007.46 1008.12 1008.40 1008.47 1008.54 1008.86 1009.31 1009.78 1010.29 1010.73 1010.96 1011.25 1011.65 1011.94 1012.07 1012.31 1012.45 1012.71 1013.04 1013.35 1013.79 1014.08
1012.92 1013.83 1014.49 1014.31 1013.25 1011.81 1010.45 1009.00 1008.79 1008.27 1007.65 1006.39 1005.56 1004.51 1003.40 1002.71 1002.40 1002.89 1003.49 1004.03 1004.55 1005.31 1005.57 1005.98 1006.33 1006.59 1006.83 1007.37 1007.96 1008.44 1008.72 1008.90 1008.99 1009.38 1009.79 1010.22 1010.63 1010.94 1011.33 1011.64 1011.93 1012.14 1012.33 1012.53 1012.82 1013.14 1013.49 1013.87 1014.23
1013.56 1014.38 1014.97 1014.27 1012.66 1011.01 1009.54 1008.80 1008.51 1007.91 1007.33 1006.30 1005.56 1004.56 1003.31 1003.10 1002.99 1003.50 1003.85 1004.17 1004.69 1004.90 1005.59 1005.95 1006.43 1006.76 1007.06 1007.46 1007.79 1008.35 1008.72 1009.04 1009.13 1009.36 1009.74 1010.10 1010.48 1010.86 1011.27 1011.67 1011.99 1012.26 1012.40 1012.55 1012.85 1013.21 1013.56 1013.83 1014.14
1013.67 1014.51 1014.22 1013.45 1012.29 1010.87 1009.02 1008.16 1008.14 1007.66 1007.22 1006.23 1005.64 1004.78 1003.69 1003.60 1003.52 1003.85 1004.43 1004.84 1005.02 1005.33 1005.49 1005.77 1006.12 1006.48 1006.95 1007.55 1007.98 1008.26 1008.73 1009.14 1009.34 1009.41 1009.72 1010.02 1010.43 1010.86 1011.20 1011.61 1011.98 1012.24 1012.49 1012.68 1012.86 1013.13 1013.44 1013.84 1014.01
1013.33 1013.93 1013.71 1012.97 1012.07 1010.40 1008.93 1008.17 1007.61 1007.45 1006.91 1006.14 1005.58 1005.40 1004.82 1003.49 1003.60 1004.45 1005.03 1005.48 1005.82 1005.84 1005.93 1006.13 1006.25 1006.46 1006.90 1007.42 1007.92 1008.20 1008.67 1009.18 1009.42 1009.46 1009.63 1009.94 1010.39 1010.79 1011.11 1011.48 1011.91 1012.22 1012.48 1012.72 1013.00 1013.30 1013.43 1013.83 1014.15
1012.74 1013.51 1013.21 1012.19 1011.41 1009.96 1008.70 1008.54 1007.76 1007.40 1007.12 1006.66 1005.94 1005.65 1005.14 1004.61 1004.50 1004.91 1005.45 1005.90 1006.16 1006.26 1006.34 1006.44 1006.62 1006.92 1006.85 1007.26 1007.85 1008.22 1008.65 1009.12 1009.35 1009.51 1009.63 1009.94 1010.40 1010.73 1011.03 1011.38 1011.75 1011.99 1012.27 1012.61 1012.93 1013.25 1013.52 1013.96 1014.37
1012.64 1012.69 1011.96 1010.94 1010.29 1009.98 1008.82 1008.75 1008.07 1007.80 1007.43 1006.71 1006.19 1005.27 1004.54 1004.89 1005.44 1005.31 1005.61 1005.92 1006.20 1006.33 1006.46 1006.62 1006.69 1006.95 1007.21 1007.33 1007.64 1008.15 1008.64 1009.02 1009.24 1009.33 1009.50 1009.87 1010.27 1010.63 1010.91 1011.27 1011.66 1011.89 1012.21 1012.55 1012.83 1013.23 1013.66 1014.09 1014.34
1011.83 1011.43 1010.89 1010.27 1009.87 1009.56 1009.15 1008.07 1008.07 1007.69 1007.39 1007.01 1006.43 1005.72 1005.20 1004.90 1005.50 1006.08 1005.78 1005.39 1005.26 1005.52 1006.19 1006.35 1006.44 1006.63 1006.99 1007.41 1007.59 1007.99 1008.48 1008.90 1009.14 1009.34 1009.48 1009.88 1010.26 1010.68 1010.95 1011.35 1011.79 1012.01 1012.30 1012.68 1012.91 1013.39 1013.91 1014.20 1014.48
1011.49 1010.77 1010.34 1009.89 1009.44 1009.18 1008.82 1008.11 1007.35 1007.51 1007.22 1006.76 1006.29 1005.82 1005.59 1005.24 1005.27 1005.74 1006.15 1006.09 1005.70 1005.64 1005.52 1005.82 1006.18 1006.41 1006.58 1006.95 1007.25 1007.67 1008.11 1008.54 1008.99 1009.31 1009.58 1009.85 1010.39 1010.78 1010.91 1011.26 1011.68 1012.03 1012.35 1012.74 1013.12 1013.56 1013.93 1014.21 1014.55
1010.87 1010.45 1009.77 1009.43 1009.14 1008.63 1008.06 1007.95 1007.48 1006.50 1006.53 1006.14 1005.99 1005.87 1005.70 1005.47 1005.29 1004.92 1005.06 1005.14 1005.62 1005.97 1005.63 1005.47 1005.78 1006.02 1006.17 1006.45 1006.93 1007.36 1007.71 1008.15 1008.54 1008.80 1009.34 1009.54 1010.12 1010.53 1010.80 1011.22 1011.47 1011.73 1012.20 1012.60 1013.13 1013.77 1013.99 1014.17 1014.46
1010.03 1009.78 1009.59 1009.23 1008.83 1008.15 1007.61 1007.31 1007.24 1006.65 1005.83 1005.87 1005.83 1005.84 1005.46 1005.13 1005.18 1004.78 1004.59 1004.78 1004.94 1004.89 1005.19 1005.22 1005.35 1005.49 1005.81 1006.05 1006.40 1006.85 1007.38 1007.61 1008.02 1008.30 1008.83 1009.34 1009.63 1010.17 1010.52 1011.05 1011.34 1011.63 1012.07 1012.45 1012.92 1013.52 1013.92 1014.14 1014.45
1009.97 1009.78 1009.39 1009.12 1008.58 1008.04 1007.23 1006.81 1006.64 1006.11 1005.92 1005.78 1005.82 1005.58 1005.13 1004.76 1004.30 1004.45 1003.94 1003.95 1004.02 1004.08 1003.86 1004.34 1004.66 1005.03 1005.20 1005.58 1005.88 1006.27 1007.01 1007.19 1007.57 1007.75 1008.39 1008.91 1009.29 1009.74 1010.20 1010.80 1011.11 1011.44 1011.90 1012.41 1012.92 1013.50 1013.68 1014.34 1014.63
1010.38 1010.08 1009.76 1009.09 1008.65 1007.86 1007.64 1005.38 1006.26 1005.98 1006.03 1006.12 1005.72 1005.28 1005.00 1004.23 1003.92 1003.51 1003.11 1003.12 1003.01 1002.99 1003.09 1003.23 1003.63 1004.24 1004.57 1004.93 1005.31 1005.76 1006.47 1006.97 1006.99 1007.17 1007.77 1008.41 1008.93 1009.49 1010.01 1010.52 1010.78 1011.25 1011.69 1012.28 1012.82 1013.41 1013.64 1013.91 1014.67
1011.16 1010.81 1010.32 1009.74 1008.70 1008.38 1007.94 1006.11 1006.12 1005.89 1006.04 1005.95 1005.71 1005.14 1004.68 1004.05 1003.47 1002.91 1002.42 1002.29 1002.10 1001.94 1002.09 1002.21 1002.45 1002.94 1003.52 1004.08 1004.77 1005.19 1005.69 1006.25 1006.68 1006.84 1007.28 1007.87 1008.42 1009.10 1009.68 1010.14 1010.55 1010.90 1011.53 1012.14 1012.55 1013.26 1013.49 1013.79 1014.34
1011.58 1011.33 1010.68 1010.22 1009.42 1008.77 1008.29 1006.32 1006.54 1006.23 1006.03 1005.69 1005.43 1005.02 1004.59 1003.78 1003.13 1002.35 1001.72 1001.15 1001.20 1001.23 1001.23 1001.44 1001.62 1001.92 1002.47 1003.24 1004.08 1004.77 1005.39 1006.06 1006.23 1006.66 1007.11 1007.37 1008.01 1008.63 1009.29 1009.89 1010.36 1010.65 1011.22 1011.88 1012.24 1012.78 1013.37 1013.74 1013.98
1011.41 1011.33 1010.82 1010.33 1009.50 1009.20 1008.29 1006.33 1006.12 1005.75 1005.91 1005.69 1005.37 1005.02 1004.33 1003.43 1002.35 1001.75 1001.29 1000.55 1000.36 1000.43 1000.74 1000.80 1001.08 1001.32 1002.30 1002.77 1003.34 1004.18 1004.58 1005.29 1005.69 1006.15 1006.53 1006.90 1007.44 1008.13 1008.90 1009.54 1010.03 1010.43 1010.81 1011.40 1011.77 1012.38 1012.86 1013.53 1013.90
1011.23 1011.14 1010.66 1009.85 1008.96 1008.97 1008.41 1006.22 1005.35 1005.77 1005.31 1004.92 1004.73 1004.42 1003.87 1003.02 1002.29 1001.80 1001.13 1000.58 1000.07 999.72 999.84 1000.16 1000.02 1000.61 1001.23 1001.70 1002.04 1002.74 1003.39 1004.30 1004.83 1005.62 1006.30 1006.66 1007.21 1007.61 1008.37 1009.10 1009.60 1010.03 1010.50 1011.19 1011.51 1011.83 1012.46 1013.01 1013.38
1010.40 1010.56 1010.05 1009.51 1008.86 1008.51 1008.01 1005.92 1005.57 1004.97 1004.62 1004.36 1004.10 1003.76 1003.56 1003.54 1003.43 1003.10 1002.39 1001.61 1000.99 1000.76 1000.32 999.48 999.42 999.64 1000.17 1000.78 1001.69 1002.60 1003.58 1004.63 1004.98 1005.38 1005.85 1006.16 1006.70 1007.35 1007.89 1008.55 1009.16 1009.69 1010.14 1010.53 1011.14 1011.40 1011.84 1012.39 1013.02
1009.59 1009.28 1009.12 1009.06 1009.26 1008.73 1007.63 1006.66 1004.05 1004.52 1004.59 1004.74 1004.38 1004.30 1004.86 1004.88 1004.56 1004.33 1003.62 1002.82 1002.14 1001.55 1001.13 1000.06 998.84 999.07 999.58 1000.14 1000.82 1001.46 1001.95 1003.20 1003.52 1003.90 1004.88 1005.85 1006.29 1006.99 1007.39 1008.14 1008.86 1009.29 1009.71 1010.04 1010.58 1011.05 1011.39 1011.86 1012.35
1008.73 1008.57 1008.73 1008.73 1008.85 1008.56 1007.00 1008.18 1004.68 1005.05 1004.53 1004.92 1005.40 1005.56 1005.64 1005.78 1005.36 1004.88 1004.13 1003.54 1002.99 1001.88 1001.15 1000.32 998.40 998.21 998.44 999.27 999.96 1000.50 1001.33 1001.82 1002.33 1003.46 1004.76 1005.73 1006.19 1006.70 1007.10 1007.83 1008.43 1008.79 1009.37 1009.71 1010.04 1010.63 1011.08 1011.41 1011.81
1008.22 1008.55 1008.50 1008.75 1009.13 1008.93 1006.84 1008.09 1005.96 1005.81 1005.67 1005.99 1006.48 1006.81 1006.82 1006.47 1006.04 1005.51 1004.53 1004.47 1003.51 1001.89 1001.48 1000.36 998.58 997.92 998.18 998.68 999.34 1000.00 1000.41 1001.47 1002.28 1003.13 1004.11 1005.22 1005.84 1006.34 1006.77 1007.42 1007.97 1008.24 1008.74 1009.43 1009.55 1009.99 1010.64 1011.05 1011.40
1008.72 1008.98 1009.56 1009.92 1009.87 1008.78 1007.89 1007.71 1006.75 1006.45 1006.49 1006.96 1007.45 1007.61 1007.76 1007.45 1006.63 1006.06 1004.55 1005.79 1004.18 1002.45 1002.44 1000.85 999.41 997.90 997.96 998.35 999.17 999.70 1000.19 1000.82 1001.28 1002.21 1003.31 1004.76 1005.57 1006.06 1006.35 1007.05 1007.57 1007.85 1008.23 1009.01 1009.11 1009.42 1010.06 1010.59 1010.95
1009.47 1009.67 1010.00 1009.80 1009.72 1009.24 1008.39 1007.64 1006.68 1006.88 1006.89 1007.18 1007.48 1007.96 1008.31 1007.90 1007.91 1007.47 1006.03 1006.67 1004.44 1004.15 1003.07 1001.16 999.53 998.20 998.13 998.23 998.81 999.63 1000.27 1000.78 1001.31 1001.98 1002.61 1003.89 1004.76 1005.56 1005.95 1006.73 1007.20 1007.60 1007.91 1008.63 1008.75 1008.88 1009.46 1009.88 1010.25
1009.95 1010.13 1010.20 1010.19 1009.63 1009.63 1008.30 1007.35 1007.27 1006.98 1007.07 1007.24 1007.52 1007.26 1008.45 1009.20 1008.87 1008.51 1007.01 1007.13 1005.89 1005.30 1003.81 1002.38 1000.50 998.48 998.22 998.35 999.17 999.66 1000.28 1000.73 1001.16 1001.72 1002.38 1003.56 1004.44 1005.15 1005.73 1006.46 1007.07 1007.49 1007.57 1008.27 1008.25 1008.59 1008.99 1009.35 1009.74
1010.57 1010.83 1010.75 1010.93 1010.70 1009.71 1008.27 1007.61 1007.15 1007.27 1007.56 1007.82 1008.32 1008.24 1009.19 1010.10 1009.95 1009.45 1008.82 1007.66 1006.71 1005.97 1004.44 1003.15 1001.65 1000.21 999.08 998.88 998.99 999.85 1000.28 1000.75 1001.15 1001.62 1002.45 1003.49 1004.31 1005.09 1005.79 1006.47 1006.98 1007.24 1007.49 1008.13 1008.02 1008.40 1008.76 1008.92 1009.07
1011.73 1011.70 1011.65 1011.89 1011.77 1010.21 1009.24 1007.95 1007.61 1008.17 1008.36 1008.38 1009.31 1009.52 1010.44 1010.94 1011.01 1010.77 1009.83 1009.02 1007.96 1006.74 1005.26 1003.86 1002.66 1001.28 1000.75 999.88 999.41 999.36 1000.36 1001.40 1001.36 1001.91 1002.52 1003.48 1004.05 1005.03 1005.68 1006.20 1006.81 1007.10 1007.21 1007.82 1007.95 1008.20 1008.45 1008.53 1008.46
1012.31 1012.68 1012.82 1012.82 1012.26 1011.73 1011.15 1009.09 1008.76 1009.14 1009.67 1010.10 1010.48 1010.99 1011.48 1011.78 1011.86 1011.66 1010.78 1009.66 1008.40 1007.23 1005.84 1004.62 1003.38 1002.46 1001.82 1000.88 1000.15 999.57 1000.30 1001.35 1001.85 1002.13 1002.52 1003.44 1004.41 1004.82 1005.45 1006.13 1006.66 1007.08 1007.45 1007.69 1007.75 1007.76 1007.92 1007.89 1007.82
Wind_Speed
2 2 2 5 5 6 5 9 4 5 9 3 6 5 5 3 5 7 5 6 12 15 13 14 15 13 11 11 12 17 17 17 16 15 13 13 13 15 16 15 13 14 15 15 14 14 13 13 11
2 2 5 3 6 2 7 6 13 5 8 12 11 5 5 4 0 3 5 5 14 17 14 14 17 16 15 12 10 14 18 17 17 16 15 14 13 14 14 14 13 14 15 15 14 13 13 12 11
2 3 5 5 5 9 7 7 2 3 8 5 7 3 4 4 2 9 5 13 10 10 12 14 18 17 16 14 12 12 15 16 16 16 16 15 14 14 14 13 13 15 15 15 14 13 13 12 11
1 4 5 5 10 8 8 3 4 9 9 3 3 12 7 7 8 8 15 16 13 11 10 11 15 16 16 15 12 11 13 14 15 15 15 15 14 14 14 12 14 15 14 14 15 15 14 13 12
4 3 2 4 7 6 7 4 1 6 5 10 11 10 4 5 5 12 15 15 16 12 9 13 14 14 15 15 14 12 12 12 14 14 14 14 13 13 12 11 13 13 12 12 13 14 14 12 12
3 3 2 7 6 4 8 3 2 3 5 12 7 5 6 5 8 9 11 13 11 15 12 11 13 12 12 13 14 12 12 12 13 13 13 14 13 12 12 12 11 10 10 12 15 14 13 14 14
6 4 6 4 4 5 6 5 3 3 4 7 10 6 4 2 2 6 5 5 8 10 12 11 12 14 14 12 11 12 11 11 11 12 12 12 12 12 13 11 11 10 10 13 15 14 15 13 15
5 4 3 5 5 9 4 3 1 2 6 7 3 7 9 4 9 7 7 6 5 4 5 8 10 10 10 9 11 12 11 11 11 12 12 11 11 12 12 11 11 12 12 12 14 14 14 14 11
5 0 3 6 5 7 3 4 1 4 4 7 6 3 7 7 7 7 6 4 4 3 4 5 10 8 9 8 8 10 11 12 12 11 11 10 5 7 9 9 12 13 12 12 13 12 12 9 10
5 4 9 6 4 6 15 4 14 3 7 8 8 9 10 6 4 7 6 6 4 6 6 6 7 8 6 6 7 6 6 5 5 7 6 5 6 5 7 9 13 13 11 10 9 10 9 8 5
5 7 5 5 6 4 6 14 7 4 11 11 9 7 6 5 2 5 5 10 17 13 7 10 10 10 10 8 8 6 4 4 4 8 7 5 4 4 4 4 6 6 9 4 5 5 4 5 5
5 6 5 5 6 7 9 12 13 10 11 11 12 9 4 8 7 8 8 9 7 9 13 11 10 11 11 7 9 9 7 6 6 6 6 5 4 4 5 5 6 6 4 5 4 2 4 5 5
6 8 9 9 11 10 13 13 14 17 13 11 10 9 10 9 10 9 9 11 8 7 9 12 11 12 11 10 8 10 11 8 8 8 6 6 6 6 6 5 6 7 5 6 5 4 4 5 6
5 5 8 6 9 7 9 10 3 5 11 9 8 10 11 10 12 9 9 9 11 14 11 10 13 13 11 11 11 9 10 10 9 8 7 8 7 7 7 6 7 6 6 5 7 6 5 4 4
6 7 5 5 6 8 8 7 9 9 9 10 8 10 11 11 11 12 12 13 11 14 18 13 15 13 13 13 12 9 8 8 8 8 8 10 8 8 8 7 6 5 5 6 4 4 4 2 2
4 2 4 3 2 6 4 14 6 9 4 10 11 10 10 12 10 11 11 11 13 9 15 16 14 15 15 13 11 9 8 8 8 8 8 10 10 9 7 7 7 5 6 6 6 5 6 5 3
2 6 5 6 4 6 6 14 4 7 8 9 10 11 11 12 13 11 11 10 10 13 13 18 18 18 18 14 10 10 12 9 7 7 8 11 11 10 8 7 6 8 7 7 7 5 6 6 6
5 4 4 4 5 2 10 22 10 9 9 11 10 11 13 15 15 15 14 11 10 10 12 16 15 18 18 12 8 6 7 7 7 7 8 12 9 11 8 6 8 8 7 7 7 8 5 5 6
3 5 10 7 11 4 13 22 17 12 6 9 11 12 14 15 16 13 13 12 10 8 8 14 15 16 12 10 11 9 10 9 8 8 11 12 10 10 9 6 8 8 8 9 10 7 9 5 7
7 8 11 8 12 5 11 22 18 9 8 10 13 12 14 15 14 12 12 11 10 13 10 13 16 15 15 12 12 7 10 8 9 7 9 10 10 10 9 9 8 9 7 9 10 9 5 4 8
8 6 8 11 9 6 7 20 10 6 8 12 12 11 7 8 10 11 13 12 9 9 7 10 14 17 17 16 9 4 7 4 3 6 7 9 11 10 10 9 9 9 9 8 10 10 10 7 7
11 8 14 14 6 8 8 13 24 10 5 9 14 9 8 9 11 12 13 15 14 14 13 11 14 16 16 16 15 16 15 12 10 10 8 7 10 10 10 9 10 10 8 9 9 9 10 9 9
8 9 10 11 4 4 9 3 16 14 17 8 9 8 7 10 11 12 15 15 13 14 15 15 11 17 18 18 18 16 13 9 7 7 9 8 8 9 9 10 10 10 8 9 10 10 10 8 7
8 4 4 3 2 4 19 7 16 10 5 4 8 10 11 12 11 11 12 15 15 15 16 16 10 14 17 18 18 18 17 12 11 11 11 9 7 7 9 10 10 8 8 8 9 9 9 7 4
7 3 3 4 1 9 5 2 8 5 3 1 7 9 11 13 16 17 18 17 17 18 19 16 15 11 14 16 15 15 14 14 15 14 11 10 7 5 9 9 8 7 7 9 11 9 9 9 8
6 4 4 4 3 5 3 7 5 4 4 7 5 8 13 16 16 17 15 15 17 18 19 19 18 5 11 13 13 10 11 9 9 10 10 9 9 7 7 8 6 6 8 9 8 7 8 10 11
5 2 2 5 1 3 5 5 1 3 4 2 5 10 13 15 17 18 19 17 17 17 18 18 17 3 8 10 7 9 10 11 11 11 10 8 7 7 8 9 9 8 6 6 5 4 6 7 9
5 5 4 2 4 6 5 6 6 4 6 5 7 11 14 15 16 17 16 17 17 16 16 16 15 14 4 5 7 6 6 8 9 10 11 10 8 8 9 7 6 6 6 6 5 4 5 7 9
5 2 3 2 4 4 5 5 2 6 8 7 9 13 12 13 14 15 15 15 15 15 14 14 14 15 12 7 5 9 5 3 8 8 9 9 9 9 8 7 6 5 4 4 3 6 8 9 10
5 3 2 3 3 3 4 5 4 7 9 10 12 12 11 14 14 13 14 15 16 17 17 15 15 14 12 9 4 9 10 7 6 8 9 10 9 8 9 8 6 5 4 4 4 5 5 8 9
Wind_Direction
103 19 35 45 63 62 268 260 258 290 327 242 321 258 234 224 177 214 335 156 134 147 156 166 164 162 158 152 147 134 130 130 129 125 127 124 128 130 134 136 138 142 143 147 145 137 137 131 131
132 126 43 81 102 133 260 234 249 226 262 322 321 278 261 265 266 101 119 171 160 153 159 168 163 158 155 156 160 142 138 137 134 132 135 136 141 138 140 141 141 143 144 149 147 139 141 138 135
165 73 97 132 162 204 228 221 237 280 304 287 299 273 260 211 241 171 161 146 138 154 163 166 161 158 155 157 164 153 145 143 141 141 144 144 149 147 145 153 147 147 150 153 151 144 135 132 139
23 13 29 125 225 260 228 196 1 345 317 265 253 297 304 204 168 190 145 145 147 157 163 163 158 157 156 157 165 163 154 149 146 146 148 149 154 153 153 157 151 148 160 161 153 145 141 144 141
44 47 103 230 244 248 259 258 83 301 272 297 302 272 265 282 96 133 145 151 154 160 159 160 159 160 158 161 166 167 161 158 151 151 152 155 160 156 156 163 160 165 166 164 145 145 146 143 144
57 100 79 239 249 238 254 237 199 250 281 290 319 261 233 296 128 156 153 162 165 159 155 157 158 156 160 168 167 170 166 167 159 158 160 162 164 160 164 170 171 170 162 148 143 149 150 154 151
132 107 218 211 254 283 263 214 222 254 304 299 300 279 292 83 65 136 133 140 151 155 153 157 165 167 166 171 171 166 168 170 168 166 167 167 168 166 170 175 179 168 159 152 160 162 156 164 158
124 121 223 224 223 269 263 353 44 306 284 295 22 348 306 224 122 93 79 81 82 104 142 157 165 165 164 170 172 168 168 173 177 175 174 171 173 171 175 172 173 166 165 161 163 169 169 175 162
146 267 207 217 193 259 317 360 348 336 297 329 300 280 285 11 99 87 103 88 98 118 150 159 169 174 160 154 169 166 170 178 183 184 179 169 170 176 177 163 172 166 164 168 173 172 164 152 149
164 177 219 209 218 267 297 301 299 284 304 294 303 320 339 65 335 150 165 170 181 187 186 181 171 165 154 158 157 156 169 173 186 191 178 160 167 169 164 165 170 160 159 165 159 159 154 136 131
203 226 219 242 268 267 275 293 264 256 278 254 263 270 283 316 253 316 250 189 193 200 180 190 178 169 164 168 166 171 172 171 179 197 180 165 155 160 152 149 173 171 159 164 173 155 159 150 149
259 239 240 264 252 274 260 272 281 260 257 260 263 248 263 247 257 206 239 277 225 184 199 191 186 181 178 165 173 176 174 178 187 197 176 163 166 169 161 167 173 172 169 165 154 162 173 153 144
216 252 255 247 260 262 269 259 256 280 274 257 264 278 252 239 248 266 213 216 223 257 222 201 185 189 182 175 172 178 186 182 194 191 184 170 176 182 169 171 171 177 166 169 167 161 185 163 158
248 244 276 264 255 254 258 260 219 269 277 259 261 263 263 238 219 247 261 225 223 215 215 213 197 194 181 186 176 181 188 185 184 186 183 182 173 181 180 174 173 172 174 166 172 178 176 158 142
260 294 291 242 225 236 258 260 233 250 275 298 261 262 261 246 265 225 219 235 205 217 218 195 201 193 187 189 188 175 191 181 185 180 173 181 176 183 175 177 173 170 158 140 142 162 142 134 144
337 292 302 294 21 281 230 273 298 275 339 303 299 300 288 283 252 253 249 219 227 210 209 206 199 193 196 190 185 176 183 193 188 182 175 181 178 180 173 185 183 153 162 165 168 185 159 149 182
321 259 256 299 271 258 231 294 245 313 304 277 286 291 288 290 287 273 251 246 225 216 210 207 199 191 194 193 182 187 183 184 189 179 180 183 178 179 174 185 183 179 173 177 174 179 190 182 183
237 262 253 239 291 298 288 284 269 259 263 275 283 285 287 286 272 272 272 261 237 221 206 209 201 199 193 187 173 173 177 191 172 183 190 178 179 178 174 173 178 175 175 188 178 180 181 197 190
242 268 270 273 264 287 282 281 288 289 247 263 265 265 272 269 275 266 259 262 247 243 196 203 198 198 193 181 181 182 187 185 183 189 181 179 175 174 176 173 178 181 182 193 185 176 176 177 168
238 257 274 272 255 213 263 274 282 276 257 252 274 275 268 272 284 288 289 273 247 239 200 200 197 189 189 191 190 190 185 189 184 173 178 180 175 175 172 172 182 178 176 183 185 174 164 172 170
244 222 257 259 291 252 285 279 282 282 276 284 284 272 305 345 343 348 355 4 359 330 292 201 201 188 189 191 175 103 104 92 131 170 182 184 176 177 177 171 177 181 185 182 187 180 178 176 182
262 236 253 267 270 261 179 287 296 293 307 314 321 345 16 358 354 350 348 349 344 338 320 281 199 190 194 183 178 175 178 179 195 193 181 175 173 175 165 169 179 180 189 184 188 186 190 189 195
254 229 259 266 243 316 253 146 278 320 312 329 346 18 13 347 353 346 351 343 337 339 326 309 233 200 188 186 186 183 185 186 159 153 146 166 170 172 168 171 178 180 187 195 187 192 199 193 192
263 267 244 34 87 269 286 168 279 296 330 7 359 11 2 351 347 348 357 340 332 347 337 323 297 202 190 189 186 189 182 165 154 158 161 173 169 168 172 175 183 177 180 204 197 189 197 198 203
14 65 325 315 341 249 34 316 246 7 25 82 8 351 353 1 357 349 16 339 333 349 333 331 322 199 188 185 190 189 180 173 165 160 162 170 171 174 178 175 181 177 183 206 199 181 184 192 198
297 176 183 263 213 260 17 254 254 106 66 65 58 19 1 4 2 346 0 330 347 343 325 334 333 221 181 182 175 175 167 172 167 171 159 172 180 187 162 176 173 186 191 200 186 184 198 197 207
302 345 248 273 300 287 234 280 147 142 32 47 27 51 18 356 354 345 355 339 341 332 333 330 329 252 183 171 164 158 169 174 173 160 153 166 167 176 179 191 191 180 155 177 160 190 205 209 218
81 282 351 13 265 238 260 244 235 8 341 320 27 33 18 355 349 342 340 345 340 332 331 331 341 352 26 132 155 172 182 176 159 151 158 159 149 151 158 158 154 153 161 190 163 211 240 236 231
341 313 293 179 256 280 279 260 3 44 1 335 31 31 16 357 353 340 338 339 335 331 337 341 356 4 360 332 129 102 81 209 151 154 149 155 146 151 151 148 161 168 146 191 187 231 244 240 247
219 58 346 144 275 270 269 267 83 84 56 41 22 8 10 6 352 346 343 342 348 344 345 350 356 1 340 324 246 140 146 153 164 157 151 141 152 149 162 154 149 159 175 198 208 238 235 236 241